N6OIM Weather Reports


Display with metric or nautical units.
time (UTC)temp
F
wind
direction
speed
MPH
gust
MPH
rain 1hr
in
rain 24hr
in
rain mn
in
humidity
%
barometer
mb
20260509061320 67 306 0.0 0.0 0.00 0.00 0.00 70 1012.7
20260509060852 67 307 0.0 0.0 0.00 0.00 0.00 70 1012.7
20260509060319 67 307 0.0 0.0 0.00 0.00 0.00 70 1012.7
20260509055827 67 307 0.0 0.0 0.00 0.00 0.00 70 1012.7
20260509055314 68 307 0.0 0.0 0.00 0.00 0.00 70 1012.7
20260509054825 68 307 0.0 0.0 0.00 0.00 0.00 70 1012.7
20260509054336 68 307 0.0 0.0 0.00 0.00 0.00 69 1012.6
20260509053825 68 307 0.0 0.0 0.00 0.00 0.00 69 1012.6
20260509053354 69 307 0.0 0.0 0.00 0.00 0.00 69 1012.6
20260509052823 69 307 0.0 0.0 0.00 0.00 0.00 69 1012.6
20260509052318 69 307 0.0 0.0 0.00 0.00 0.00 69 1012.6
20260509051827 69 307 0.0 0.0 0.00 0.00 0.00 69 1012.5
20260509051333 70 307 0.0 0.0 0.00 0.00 0.00 69 1012.5
20260509050841 70 306 0.0 0.0 0.00 0.00 0.00 68 1012.5
20260509050332 70 306 0.0 0.0 0.00 0.00 0.00 68 1012.5
20260509045823 70 306 0.0 0.0 0.00 0.00 0.00 68 1012.6
20260509045330 71 306 0.0 0.0 0.00 0.00 0.00 68 1012.6
20260509044818 71 306 0.0 0.0 0.00 0.00 0.00 67 1012.5
20260509044327 71 307 0.0 0.0 0.00 0.00 0.00 66 1012.4
20260509043817 72 307 0.0 0.0 0.00 0.00 0.00 66 1012.5
20260509043329 72 307 0.0 0.0 0.00 0.00 0.00 65 1012.4
20260509042821 72 307 0.0 0.0 0.00 0.00 0.00 64 1012.3
20260509042330 73 307 0.0 0.0 0.00 0.00 0.00 63 1012.3
20260509041820 73 307 0.0 0.0 0.00 0.00 0.00 63 1012.1
20260509041329 74 307 0.0 0.0 0.00 0.00 0.00 62 1012.1
20260509040818 74 306 0.0 0.0 0.00 0.00 0.00 61 1012.1
20260509040328 75 307 0.0 0.0 0.00 0.00 0.00 60 1012.2
20260509035837 75 306 0.0 0.0 0.00 0.00 0.00 59 1012.1
20260509035326 76 306 0.0 0.0 0.00 0.00 0.00 59 1012.1
20260509034822 76 307 0.0 0.0 0.00 0.00 0.00 58 1012.1
20260509034331 76 306 0.0 0.0 0.00 0.00 0.00 58 1011.9
20260509033820 77 306 0.0 0.0 0.00 0.00 0.00 57 1011.8
20260509033329 77 306 0.0 0.0 0.00 0.00 0.00 57 1011.9
20260509032817 78 307 0.0 0.0 0.00 0.00 0.00 56 1011.9
20260509032328 78 307 0.0 0.0 0.00 0.00 0.00 56 1011.8
20260509031837 78 306 0.0 0.0 0.00 0.00 0.00 55 1011.8
20260509031345 79 306 0.0 0.0 0.00 0.00 0.00 54 1011.8
20260509030833 79 307 0.0 0.0 0.00 0.00 0.00 54 1011.7
20260509030320 80 306 0.0 0.0 0.00 0.00 0.00 53 1011.7
20260509025836 80 306 0.0 0.0 0.00 0.00 0.00 53 1011.6
20260509025323 81 306 0.0 0.0 0.00 0.00 0.00 52 1011.6
20260509024833 81 306 0.0 0.0 0.00 0.00 0.00 51 1011.6
20260509024321 82 315 0.0 0.0 0.00 0.00 0.00 51 1011.6
20260509023834 83 327 0.0 0.0 0.00 0.00 0.00 50 1011.6
20260509023324 83 328 0.0 0.0 0.00 0.00 0.00 49 1011.5
20260509022854 84 336 0.0 0.0 0.00 0.00 0.00 49 1011.4
20260509022321 84 337 0.0 0.0 0.00 0.00 0.00 48 1011.3
20260509021829 85 338 0.0 0.0 0.00 0.00 0.00 46 1011.3
20260509021321 85 338 0.0 0.0 0.00 0.00 0.00 43 1011.4
20260509020829 85 338 0.0 0.0 0.00 0.00 0.00 41 1011.5
20260509020336 85 338 0.0 0.0 0.00 0.00 0.00 41 1011.3
20260509015825 86 338 0.0 0.0 0.00 0.00 0.00 39 1011.4
20260509015353 86 338 0.0 0.0 0.00 0.00 0.00 38 1011.4
20260509014822 86 338 0.0 0.0 0.00 0.00 0.00 37 1011.5
20260509014330 87 317 0.0 0.0 0.00 0.00 0.00 36 1011.6
20260509013819 87 306 0.0 0.0 0.00 0.00 0.00 36 1011.6
20260509013328 88 305 0.0 0.0 0.00 0.00 0.00 35 1011.6
20260509012837 88 280 0.0 0.0 0.00 0.00 0.00 35 1011.6
20260509012328 88 280 0.0 0.0 0.00 0.00 0.00 35 1011.6
20260509011817 89 280 0.0 0.0 0.00 0.00 0.00 34 1011.6
20260509011328 89 255 0.0 0.0 0.00 0.00 0.00 36 1011.7
20260509010817 89 255 0.0 0.0 0.00 0.00 0.00 35 1011.7
20260509010328 89 254 0.0 0.0 0.00 0.00 0.00 35 1011.8
20260509005818 89 306 0.0 0.0 0.00 0.00 0.00 34 1011.7
20260509005326 89 300 0.0 0.0 0.00 0.00 0.00 34 1011.8
20260509004817 89 315 0.0 0.0 0.00 0.00 0.00 37 1011.8
20260509004326 89 288 0.0 0.0 0.00 0.00 0.00 37 1011.8
20260509003818 89 230 0.0 0.0 0.00 0.00 0.00 35 1011.8
20260509003346 89 228 0.0 0.0 0.00 0.00 0.00 36 1011.8
20260509002835 89 228 0.0 0.0 0.00 0.00 0.00 37 1011.9
20260509002323 89 274 0.0 0.0 0.00 0.00 0.00 37 1011.9
20260509001833 89 273 0.0 0.0 0.00 0.00 0.00 37 1012.0
20260509001342 89 288 0.0 0.0 0.00 0.00 0.00 35 1012.0
20260509000850 89 300 0.0 0.0 0.00 0.00 0.00 38 1012.0
20260509000336 88 300 0.0 0.0 0.00 0.00 0.00 39 1012.1
20260508235825 88 293 0.0 0.0 0.00 0.00 0.00 37 1012.3
20260508235317 88 293 0.0 0.0 0.00 0.00 0.00 40 1012.3
20260508234827 88 293 0.0 0.0 0.00 0.00 0.00 38 1012.3
20260508234319 88 240 0.0 0.0 0.00 0.00 0.00 38 1012.4
20260508233828 88 240 0.0 0.0 0.00 0.00 0.00 38 1012.5
20260508233337 88 240 0.0 0.0 0.00 0.00 0.00 40 1012.4
20260508232824 88 238 0.0 0.0 0.00 0.00 0.00 38 1012.5
20260508232333 88 342 0.0 0.0 0.00 0.00 0.00 39 1012.4
20260508231824 87 344 0.0 0.0 0.00 0.00 0.00 40 1012.5
20260508231331 87 344 0.0 0.0 0.00 0.00 0.00 38 1012.5
20260508230821 88 338 0.0 0.0 0.00 0.00 0.00 41 1012.6
20260508230330 87 341 0.0 0.0 0.00 0.00 0.00 41 1012.7
20260508225823 87 268 0.0 0.0 0.00 0.00 0.00 42 1012.8
20260508225331 87 263 0.0 0.0 0.00 0.00 0.00 42 1012.9
20260508224821 86 263 0.0 0.0 0.00 0.00 0.00 41 1012.9
20260508224330 86 263 0.0 0.0 0.00 0.00 0.00 43 1013.0
20260508223820 86 263 0.0 0.0 0.00 0.00 0.00 43 1013.2
20260508223329 85 262 0.0 0.0 0.00 0.00 0.00 43 1013.2
20260508222818 85 260 0.0 0.0 0.00 0.00 0.00 42 1013.2
20260508222330 85 260 0.0 0.0 0.00 0.00 0.00 45 1013.4
20260508221823 84 260 0.0 0.0 0.00 0.00 0.00 44 1013.5
20260508221330 84 259 0.0 0.0 0.00 0.00 0.00 44 1013.5
20260508220840 84 242 0.0 0.0 0.00 0.00 0.00 45 1013.6
20260508220327 84 159 0.0 0.0 0.00 0.00 0.00 44 1013.6
20260508215817 83 21 0.0 0.0 0.00 0.00 0.00 45 1013.6
20260508215325 83 20 0.0 0.0 0.00 0.00 0.00 44 1013.8
20260508214835 83 250 0.0 0.0 0.00 0.00 0.00 47 1013.9
20260508214323 83 250 0.0 0.0 0.00 0.00 0.00 47 1014.1
20260508213832 83 244 0.0 0.0 0.00 0.00 0.00 46 1014.0
20260508213320 82 321 0.0 0.0 0.00 0.00 0.00 48 1014.2
20260508212833 82 321 0.0 0.0 0.00 0.00 0.00 51 1014.1
20260508212320 82 321 0.0 0.0 0.00 0.00 0.00 49 1014.3
20260508211833 81 321 0.0 0.0 0.00 0.00 0.00 47 1014.3
20260508211320 81 321 0.0 0.0 0.00 0.00 0.00 48 1014.4
20260508210828 81 330 0.0 0.0 0.00 0.00 0.00 50 1014.4
20260508210335 81 325 0.0 0.0 0.00 0.00 0.00 50 1014.5
20260508205823 80 325 0.0 0.0 0.00 0.00 0.00 49 1014.5
20260508205331 80 307 0.0 0.0 0.00 0.00 0.00 51 1014.6
20260508204840 79 307 0.0 0.0 0.00 0.00 0.00 53 1014.7
20260508204347 79 302 0.0 0.0 0.00 0.00 0.00 51 1014.7
20260508203820 79 303 0.0 0.0 0.00 0.00 0.00 55 1014.7
20260508203332 78 303 0.0 0.0 0.00 0.00 0.00 55 1014.9
20260508202842 77 345 0.0 0.0 0.00 0.00 0.00 56 1014.9
20260508202330 77 355 0.0 0.0 0.00 0.00 0.00 56 1014.9
20260508201818 77 350 0.0 0.0 0.00 0.00 0.00 56 1014.9
20260508201327 77 348 0.0 0.0 0.00 0.00 0.00 55 1015.0
20260508200817 76 337 0.0 0.0 0.00 0.00 0.00 55 1015.1
20260508200347 76 334 0.0 0.0 0.00 0.00 0.00 56 1015.2
20260508195835 76 355 0.0 0.0 0.00 0.00 0.00 59 1015.3
20260508195323 76 246 0.0 0.0 0.00 0.00 0.00 58 1015.3
20260508194817 75 249 0.0 0.0 0.00 0.00 0.00 59 1015.3
20260508194345 75 226 0.0 0.0 0.00 0.00 0.00 59 1015.4
20260508193835 75 226 0.0 0.0 0.00 0.00 0.00 59 1015.4
20260508193323 74 225 0.0 0.0 0.00 0.00 0.00 60 1015.4
20260508192853 74 223 0.0 0.0 0.00 0.00 0.00 61 1015.4
20260508192320 73 224 0.0 0.0 0.00 0.00 0.00 63 1015.4
20260508191831 73 303 0.0 0.0 0.00 0.00 0.00 63 1015.4
20260508191320 72 303 0.0 0.0 0.00 0.00 0.00 64 1015.5
20260508190830 72 303 0.0 0.0 0.00 0.00 0.00 64 1015.7
20260508190318 72 329 0.0 0.0 0.00 0.00 0.00 65 1015.8
20260508185827 71 189 0.0 0.0 0.00 0.00 0.00 66 1015.8
20260508185319 71 250 0.0 0.0 0.00 0.00 0.00 65 1015.9
20260508184829 70 246 0.0 0.0 0.00 0.00 0.00 66 1015.8
20260508184318 70 159 0.0 0.0 0.00 0.00 0.00 67 1015.8
20260508183827 70 159 0.0 0.0 0.00 0.00 0.00 67 1015.9
20260508183317 70 157 0.0 0.0 0.00 0.00 0.00 68 1015.8
20260508182825 69 157 0.0 0.0 0.00 0.00 0.00 67 1015.8
20260508182316 69 121 0.0 0.0 0.00 0.00 0.00 69 1015.8
20260508181848 68 115 0.0 0.0 0.00 0.00 0.00 68 1015.9
20260508181336 68 145 0.0 0.0 0.00 0.00 0.00 70 1016.0
20260508180828 68 155 0.0 0.0 0.00 0.00 0.00 71 1016.0
20260508180321 67 170 0.0 0.0 0.00 0.00 0.00 72 1016.0
20260508175828 67 170 0.0 0.0 0.00 0.00 0.00 73 1016.1
20260508175316 66 169 0.0 0.0 0.00 0.00 0.00 72 1016.0
20260508174845 66 151 0.0 0.0 0.00 0.00 0.00 74 1016.1
20260508174334 65 178 0.0 0.0 0.00 0.00 0.00 73 1016.2
20260508173824 65 138 0.0 0.0 0.00 0.00 0.00 74 1016.2
20260508173331 65 127 0.0 0.0 0.00 0.00 0.00 75 1016.1
20260508172820 64 125 0.0 0.0 0.00 0.00 0.00 74 1016.3
20260508172327 64 125 0.0 0.0 0.00 0.00 0.00 75 1016.3
20260508171820 64 121 0.0 0.0 0.00 0.00 0.00 76 1016.2
20260508171332 64 119 0.0 0.0 0.00 0.00 0.00 77 1016.4
20260508170821 63 115 0.0 0.0 0.00 0.00 0.00 77 1016.3
20260508170330 63 105 0.0 0.0 0.00 0.00 0.00 77 1016.3
20260508165823 63 91 0.0 0.0 0.00 0.00 0.00 77 1016.3
20260508165332 63 78 0.0 0.0 0.00 0.00 0.00 79 1016.2
20260508164822 62 257 0.0 0.0 0.00 0.00 0.00 79 1016.3
20260508164331 62 200 0.0 0.0 0.00 0.00 0.00 80 1016.2
20260508163825 61 178 0.0 0.0 0.00 0.00 0.00 80 1016.2
20260508163317 61 208 0.0 0.0 0.00 0.00 0.00 81 1016.1
20260508162826 61 207 0.0 0.0 0.00 0.00 0.00 81 1016.1
20260508162334 61 215 0.0 0.0 0.00 0.00 0.00 81 1016.2
20260508161822 60 211 0.0 0.0 0.00 0.00 0.00 82 1016.2
20260508161330 60 206 0.0 0.0 0.00 0.00 0.00 82 1016.1
20260508160818 60 136 0.0 0.0 0.00 0.00 0.00 84 1016.1
20260508160328 60 121 0.0 0.0 0.00 0.00 0.00 85 1016.2
20260508155818 59 119 0.0 0.0 0.00 0.00 0.00 87 1016.2
20260508155327 58 121 0.0 0.0 0.00 0.00 0.00 87 1016.2
20260508154821 58 121 0.0 0.0 0.00 0.00 0.00 88 1016.2
20260508154329 58 121 0.0 0.0 0.00 0.00 0.00 88 1016.3
20260508153818 57 121 0.0 0.0 0.00 0.00 0.00 88 1016.2
20260508153327 57 117 0.0 0.0 0.00 0.00 0.00 88 1016.2
20260508152835 57 117 0.0 0.0 0.00 0.00 0.00 88 1016.2
20260508152323 57 185 0.0 0.0 0.00 0.00 0.00 89 1016.2
20260508151833 56 184 0.0 0.0 0.00 0.00 0.00 89 1016.2
20260508151321 56 182 0.0 0.0 0.00 0.00 0.00 89 1016.2
20260508150850 56 250 0.0 0.0 0.00 0.00 0.00 89 1016.2
20260508150317 56 136 0.0 0.0 0.00 0.00 0.00 89 1016.1
20260508145824 55 136 0.0 0.0 0.00 0.00 0.00 89 1016.2
20260508145315 55 136 0.0 0.0 0.00 0.00 0.00 89 1016.2
20260508144826 55 120 0.0 0.0 0.00 0.00 0.00 89 1016.0
20260508144334 55 115 0.0 0.0 0.00 0.00 0.00 89 1016.0
20260508143823 55 111 0.0 0.0 0.00 0.00 0.00 89 1016.0
20260508143330 55 119 0.0 0.0 0.00 0.00 0.00 89 1015.9
20260508142820 54 134 0.0 0.0 0.00 0.00 0.00 89 1016.0
20260508142329 54 119 0.0 0.0 0.00 0.00 0.00 89 1015.9
20260508141821 54 142 0.0 0.0 0.00 0.00 0.00 89 1015.8
20260508141329 54 143 0.0 0.0 0.00 0.00 0.00 89 1015.7
20260508140822 54 144 0.0 0.0 0.00 0.00 0.00 88 1015.7
20260508140334 54 138 0.0 0.0 0.00 0.00 0.00 88 1015.6
20260508135844 54 132 0.0 0.0 0.00 0.00 0.00 88 1015.6
20260508135330 54 136 0.0 0.0 0.00 0.00 0.00 88 1015.5
20260508134822 54 126 0.0 0.0 0.00 0.00 0.00 88 1015.4
20260508134330 54 126 0.0 0.0 0.00 0.00 0.00 88 1015.3
20260508133820 54 146 0.0 0.0 0.00 0.00 0.00 88 1015.3
20260508133329 54 149 0.0 0.0 0.00 0.00 0.00 88 1015.3
20260508132818 54 149 0.0 0.0 0.00 0.00 0.00 88 1015.3
20260508132331 54 149 0.0 0.0 0.00 0.00 0.00 88 1015.3
20260508131822 54 149 0.0 0.0 0.00 0.00 0.00 88 1015.4
20260508131331 54 149 0.0 0.0 0.00 0.00 0.00 88 1015.3
20260508130840 54 149 0.0 0.0 0.00 0.00 0.00 88 1015.4
20260508130327 54 149 0.0 0.0 0.00 0.00 0.00 88 1015.4
20260508125819 54 148 0.0 0.0 0.00 0.00 0.00 88 1015.4
20260508125328 54 148 0.0 0.0 0.00 0.00 0.00 88 1015.3
20260508124837 54 148 0.0 0.0 0.00 0.00 0.00 88 1015.1
20260508124325 55 148 0.0 0.0 0.00 0.00 0.00 87 1015.1
20260508123822 55 148 0.0 0.0 0.00 0.00 0.00 87 1015.1
20260508123331 55 148 0.0 0.0 0.00 0.00 0.00 88 1015.1
20260508122823 55 148 0.0 0.0 0.00 0.00 0.00 88 1015.2
20260508122335 55 148 0.0 0.0 0.00 0.00 0.00 87 1015.1
20260508121826 55 148 0.0 0.0 0.00 0.00 0.00 87 1014.9
20260508121333 55 148 0.0 0.0 0.00 0.00 0.00 87 1014.8
20260508120822 55 148 0.0 0.0 0.00 0.00 0.00 87 1014.8
20260508120333 55 149 0.0 0.0 0.00 0.00 0.00 87 1014.9
20260508115841 55 150 0.0 0.0 0.00 0.00 0.00 87 1014.8
20260508115329 55 150 0.0 0.0 0.00 0.00 0.00 87 1014.9
20260508114822 55 150 0.0 0.0 0.00 0.00 0.00 87 1014.9
20260508114330 55 150 0.0 0.0 0.00 0.00 0.00 87 1014.8
20260508113820 55 149 0.0 0.0 0.00 0.00 0.00 86 1014.8
20260508113328 55 149 0.0 0.0 0.00 0.00 0.00 86 1014.7
20260508112818 55 149 0.0 0.0 0.00 0.00 0.00 86 1014.7
20260508112327 56 149 0.0 0.0 0.00 0.00 0.00 86 1014.7
20260508111817 56 149 0.0 0.0 0.00 0.00 0.00 86 1014.7
20260508111325 56 149 0.0 0.0 0.00 0.00 0.00 86 1014.7
20260508110834 56 149 0.0 0.0 0.00 0.00 0.00 86 1014.8
20260508110326 56 149 0.0 0.0 0.00 0.00 0.00 86 1014.7
20260508105835 56 149 0.0 0.0 0.00 0.00 0.00 86 1014.8
20260508105343 56 149 0.0 0.0 0.00 0.00 0.00 86 1014.7
20260508104832 56 148 0.0 0.0 0.00 0.00 0.00 86 1014.8
20260508104319 56 148 0.0 0.0 0.00 0.00 0.00 86 1014.7
20260508103827 56 148 0.0 0.0 0.00 0.00 0.00 86 1014.8
20260508103355 56 148 0.0 0.0 0.00 0.00 0.00 86 1014.7
20260508102822 57 149 0.0 0.0 0.00 0.00 0.00 85 1014.8
20260508102335 57 150 0.0 0.0 0.00 0.00 0.00 85 1014.7
20260508101825 57 150 0.0 0.0 0.00 0.00 0.00 85 1014.8
20260508101332 57 150 0.0 0.0 0.00 0.00 0.00 85 1014.7
20260508100825 57 150 0.0 0.0 0.00 0.00 0.00 85 1014.7
20260508100314 57 150 0.0 0.0 0.00 0.00 0.00 85 1014.8
20260508095826 57 150 0.0 0.0 0.00 0.00 0.00 84 1014.8
20260508095334 57 150 0.0 0.0 0.00 0.00 0.00 85 1014.9
20260508094823 57 150 0.0 0.0 0.00 0.00 0.00 84 1014.9
20260508094351 57 150 0.0 0.0 0.00 0.00 0.00 84 1014.8
20260508093819 57 150 0.0 0.0 0.00 0.00 0.00 84 1014.8
20260508093348 57 150 0.0 0.0 0.00 0.00 0.00 84 1014.8
20260508092856 58 150 0.0 0.0 0.00 0.00 0.00 84 1014.8
20260508092323 58 149 0.0 0.0 0.00 0.00 0.00 83 1014.8
20260508091832 58 150 0.0 0.0 0.00 0.00 0.00 83 1014.8
20260508091323 58 150 0.0 0.0 0.00 0.00 0.00 83 1014.7
20260508090835 58 150 0.0 0.0 0.00 0.00 0.00 83 1014.7
20260508090324 58 149 0.0 0.0 0.00 0.00 0.00 83 1014.5
20260508085834 58 149 0.0 0.0 0.00 0.00 0.00 82 1014.4
20260508085322 58 150 0.0 0.0 0.00 0.00 0.00 82 1014.6
20260508084831 59 150 0.0 0.0 0.00 0.00 0.00 82 1014.5
20260508084323 59 149 0.0 0.0 0.00 0.00 0.00 82 1014.6
20260508083832 59 150 0.0 0.0 0.00 0.00 0.00 81 1014.6
20260508083328 59 151 0.0 0.0 0.00 0.00 0.00 81 1014.6
20260508082817 60 151 0.0 0.0 0.00 0.00 0.00 80 1014.6
20260508082325 60 150 0.0 0.0 0.00 0.00 0.00 80 1014.6
20260508081815 60 151 0.0 0.0 0.00 0.00 0.00 80 1014.6
20260508081327 60 149 0.0 0.0 0.00 0.00 0.00 80 1014.5
20260508080817 60 150 0.0 0.0 0.00 0.00 0.00 79 1014.5
20260508080326 60 150 0.0 0.0 0.00 0.00 0.00 79 1014.4
20260508075818 61 149 0.0 0.0 0.00 0.00 0.00 79 1014.5
20260508075326 61 149 0.0 0.0 0.00 0.00 0.00 79 1014.5
20260508074819 61 148 0.0 0.0 0.00 0.00 0.00 79 1014.4
20260508074350 61 151 0.0 0.0 0.00 0.00 0.00 78 1014.4
20260508073818 61 150 0.0 0.0 0.00 0.00 0.00 78 1014.4
20260508073326 62 150 0.0 0.0 0.00 0.00 0.00 78 1014.2
20260508072836 62 150 0.0 0.0 0.00 0.00 0.00 78 1014.3
20260508072324 62 152 0.0 0.0 0.00 0.00 0.00 78 1014.3
20260508071832 62 151 0.0 0.0 0.00 0.00 0.00 78 1014.2
20260508071320 63 151 0.0 0.0 0.00 0.00 0.00 78 1014.2
20260508070830 63 151 0.0 0.0 0.00 0.00 0.00 78 1014.3
20260508070323 63 149 0.0 0.0 0.00 0.00 0.00 77 1014.2
20260508065832 63 149 0.0 0.0 0.00 0.00 0.00 77 1014.2
20260508065319 64 149 0.0 0.0 0.00 0.00 0.00 76 1014.3
20260508064828 64 149 0.0 0.0 0.00 0.00 0.00 75 1014.1
20260508064316 64 149 0.0 0.0 0.00 0.00 0.00 75 1014.0
20260508063847 64 149 0.0 0.0 0.00 0.00 0.00 75 1014.0
20260508063336 64 149 0.0 0.0 0.00 0.00 0.00 75 1014.0
20260508062824 64 149 0.0 0.0 0.00 0.00 0.00 74 1014.0
20260508062332 65 149 0.0 0.0 0.00 0.00 0.00 74 1014.0
20260508061822 65 149 0.0 0.0 0.00 0.00 0.00 74 1014.1